Regional Weather Roundup
Issued by NWS

Home | Current Version | Previous Version | Text Only | Print | Product List | Glossary On
Versions: 1 2 3 4 5 6 7 8 9 10 11 12 13 14 15 16 17 18 19 20 21 22 23 24 25 26 27 28 29 30 31 32 33 34 35 36 37 38 39 40 41 42 43 44 45 46 47 48 49 50
000
ASUS45 KTFX 311019
RWRMT
MONTANA REGIONAL WEATHER ROUNDUP
NATIONAL WEATHER SERVICE GREAT FALLS MT
400 AM MDT MON AUG 31 2015

NOTE: "FAIR" INDICATES FEW OR NO CLOUDS BELOW 12000 FEET WITH NO
SIGNIFICANT WEATHER AND/OR OBSTRUCTIONS TO VISIBILITY.

MTZ001>007-043-311100-
WEST OF THE DIVIDE

CITY           SKY/WX    TMP DP  RH WIND       PRES   REMARKS
KALISPELL      PTSUNNY   44  42  93 SW7       29.99S
MISSOULA       MOCLDY    44  42  93 CALM      30.07S
BUTTE            N/A     43  37  79 N3        30.11S
MULLAN PASS    CLOUDY    40  37  89 CALM      30.07S
DEER LODGE       N/A     39  36  87 W3        30.12S
EUREKA           N/A     54  43  66 SE10      29.97S
HAMILTON         N/A     52  39  62 S6        30.07S
LIBBY            N/A     48  48 100 CALM      29.99S VSB 1/4
PLAINS           N/A     53  42  66 CALM      30.02S
RONAN            N/A     50  41  71 SE2       30.07S
THOMPSON FALLS   N/A     46  43  90 S3        30.07R
$$

MTZ008-052>055-311100-
SOUTHWEST MONTANA

CITY           SKY/WX    TMP DP  RH WIND       PRES   REMARKS
BOZEMAN          N/A     41  37  86 SE6       30.06R
DILLON           N/A     49  36  61 S9        30.07F
W YELLOWSTONE  CLEAR     36  23  60 E3        30.13R
THREE FORKS      N/A     47  47 100 CALM      30.04S
TWIN BRIDGES     N/A     48  35  60 S6        30.06S
$$

MTZ009-010-012-014-046-048-049-054-311100-
EAST SLOPES AND CENTRAL MONTANA

CITY           SKY/WX    TMP DP  RH WIND       PRES   REMARKS
CUT BANK         N/A     52  34  50 W22G30    29.85R
GREAT FALLS      N/A     52  33  48 SW20      29.90F
MALMSTROM AFB    N/A     55  33  44 SW28G35   29.89F
HELENA           N/A     53  36  52 W10       30.02S
CONRAD           N/A     39  34  82 SE5       29.90S
$$

MTZ011-013-016-021-045-047-050-051-311100-
NORTH CENTRAL MONTANA

CITY           SKY/WX    TMP DP  RH WIND       PRES   REMARKS
HAVRE            N/A     52  36  54 MISG      29.84S
LEWISTOWN        N/A     53  37  54 W12       29.94S
N BAR RANCH      N/A     50  37  62 NW17G26   29.95F
CHINOOK          N/A     57  36  44 SW14G20   29.83R
FORT BENTON      N/A     57  32  38 S9G17     29.89R
$$

MTZ017>020-022>027-061-062-311100-
NORTHEAST MONTANA

CITY           SKY/WX    TMP DP  RH WIND       PRES   REMARKS
GLASGOW        PTCLDY    54  51  90 W9        29.81R
JORDAN           N/A     54  48  80 W5        29.87R
SIDNEY         CLOUDY    61  52  72 W7        29.81R
WOLF POINT     CLOUDY    58  53  84 SW8       29.79R
MALTA            N/A     50  45  83 CALM      29.81R
PLENTYWOOD       N/A     57  54  88 N8        29.75R
POPLAR           N/A     59  52  77 W8        29.78R
SCOBEY           N/A     55  48  77 SW5       29.77R
$$

MTZ028>42-056>058-311100-
SOUTHCENTRAL AND SOUTHEAST MONTANA

CITY           SKY/WX    TMP DP  RH WIND       PRES   REMARKS
BAKER          MOCLDY    60  55  83 NW15      29.85R
BILLINGS       CLEAR     55  41  59 W7        29.97S
LIVINGSTON     CLEAR     53  37  54 W9        30.01S
MILES CITY     PTCLDY    58  48  69 N7        29.88R
EKALAKA          N/A     60  53  77 NW10      29.88R
FORSYTH          N/A     61  48  63 S5        29.91R
LAUREL           N/A     52  38  58 CALM      29.96F
ROUNDUP          N/A     58  35  42 SW2       29.88R
$$

REGIONAL REPORTS...DAKOTAS

CITY           SKY/WX    TMP DP  RH WIND       PRES   REMARKS
WILLISTON        N/A    N/A N/A N/A MISG      29.77R
MINOT          TSTM      66  55  67 W15       29.73R
DICKINSON      MOCLDY    62  56  80 NW8       29.76R
BEACH          PTSUNNY   57  57 100 NW14G21   29.84R
CROSBY         LGT RAIN  59  57  94 NW21G36   29.77R
BISMARCK       CLOUDY    70  60  70 N7        29.65R HAZE
GRAND FORKS    PTCLDY    66  62  87 S10       29.64S
FARGO          CLEAR     67  59  75 S15       29.67F
BUFFALO SD       N/A     58  51  78 NW10      29.76R
RAPID CITY     CLOUDY    74  51  44 W10       29.77F
$$

REGIONAL REPORTS...WYOMING/IDAHO/WASHINGTON

CITY           SKY/WX    TMP DP  RH WIND       PRES   REMARKS
GILLETTE       CLOUDY    67  45  45 NW20      29.92R
SHERIDAN       MOCLDY    58  43  57 NW12      30.01R
BUFFALO WY     CLOUDY    58  44  60 NW29G40   29.98R
CODY           CLEAR     54  41  62 W7        30.03F
YELLOWSTONE LA   N/A     39  25  57 CALM      30.20R
IDAHO FALLS    CLEAR     53  36  52 S10       30.08R
SALMON           N/A     48  37  66 S5        30.09R
BOISE            N/A     57  44  62 CALM      30.06R
SPOKANE        MOCLDY    51  43  74 S12       29.99S
$$

REGIONAL REPORTS...ALBERTA

CITY           SKY/WX    TMP DP  RH WIND       PRES   REMARKS
EDMONTON       CLEAR     48  41  76 SW5       29.52R
CALGARY        MOCLDY    55  30  38 SW15      29.66S
LETHBRIDGE     CLEAR     54  36  50 SW13G22   29.77S
MEDICINE HAT   CLEAR     52  39  62 SW15G21   29.72S
WATERTON GATE    N/A     54  32  43 SW26G46     N/A
CARDSTON         N/A     54  30  40 W9G21       N/A
MILK RIVER       N/A     48  36  61 W2          N/A
$$

REGIONAL REPORTS...SASKATCHEWAN

CITY           SKY/WX    TMP DP  RH WIND       PRES   REMARKS
SWIFT CURRENT  CLEAR     55  37  50 SW20G25   29.67F
REGINA         LGT RAIN  57  54  88 SW15      29.71F
SASKATOON      MOCLDY    61  41  48 SW17G24   29.55
CYPRESS HILLS    N/A     43  34  70 SW8         N/A
VAL MARIE        N/A     50  41  71 W16         N/A
ROCKGLEN         N/A     52  50  93 SW14        N/A
ASSINIBOIA       N/A     46  45  93 SW5         N/A
$$



USA.gov is the U.S. government's official web portal to all federal, state and local government web resources and services.